カタログに戻る

DIRECTV 2

DBS 2

運用中通信GEO
NORAD 23192·PAYLOAD·🇺🇸 United States

打ち上げ Aug 3, 1994 から Cape Canaveral Space Force Station

Loading…

TLE

最新Source: Space-Track

元期: Sep 14, 2026, 13:48 UTC

1 23192U 94047A   26257.57501435 -.00000203  00000-0  00000-0 0  9999
2 23192  13.0377  25.7696 0006490 335.8670 198.3369  0.98635910126544

AllMySatでDIRECTV 2をリアルタイム追跡

Download on the App Store